Regional Weather Roundup
Issued by NWS San Angelo, TX

Home | Current Version | Previous Version | Graphics & Text | Print | Product List | Glossary Off
Versions: 1 2 3 4 5 6 7 8 9 10 11 12 13 14 15 16 17 18 19 20 21 22 23 24 25 26 27 28 29 30 31 32 33 34 35 36 37 38 39 40 41 42 43 44 45 46 47 48 49 50

000
ASUS44 KSJT 220010
RWRSJT
WEST CENTRAL TEXAS REGIONAL WEATHER ROUNDUP
NATIONAL WEATHER SERVICE SAN ANGELO TX
600 PM CST SUN DEC 21 2014

NOTE: "FAIR" INDICATES FEW OR NO CLOUDS BELOW 12,000 FEET WITH NO
SIGNIFICANT WEATHER AND/OR OBSTRUCTIONS TO VISIBILITY.

TXZ049-054-064>066-071>073-076>078-098-099-113-114-127-128-139-140-
154-155-168>170-220100
...LOCATIONS ACROSS WEST CENTRAL TEXAS...

CITY           SKY/WX    TMP DP  RH WIND       PRES   REMARKS
SAN ANGELO     CLEAR     58  43  57 S15       29.75F
ABILENE        CLEAR     57  41  55 S13       29.72F
DYESS AFB      CLEAR     57  40  54 S15       29.70F
JUNCTION       CLEAR     52  45  77 S7        29.83F
SWEETWATER     PTCLDY    62  28  26 SW14      29.74R
BROWNWOOD      CLEAR     52  45  76 S8        29.79S
COLEMAN        CLEAR     55  45  68 S7        29.77S
SONORA         CLEAR     54  45  71 S10       29.86F
OZONA          FAIR      52  45  76 S12       29.82F
BRADY          CLEAR     52  45  76 S9        29.78F
$$

TEXAS PANHANDLE/OKLAHOMA PANHANDLE

CITY           SKY/WX    TMP DP  RH WIND       PRES   REMARKS
AMARILLO       CLOUDY    50  26  39 S7        29.62S
BORGER         CLOUDY    54  22  28 S8        29.59F
CANADIAN       MOCLDY    50  37  59 S6        29.61F
DALHART        CLOUDY    45  25  45 S6        29.59F
DUMAS          MOCLDY    44  23  44 S9        29.59F WCI  38
GUYMON         NOT AVBL
HEREFORD       CLOUDY    55  28  35 W8        29.63S
PAMPA          CLOUDY    47  29  49 S8        29.62F
PERRYTON       CLOUDY    47  37  67 SE10      29.58F
$$

SOUTHERN PANHANDLE/SOUTH PLAINS/ROLLING PLAINS

CITY           SKY/WX    TMP DP  RH WIND       PRES   REMARKS
LUBBOCK        CLOUDY    61  26  26 W21G32    29.63F
SNYDER         PTCLDY    62  29  29 SW12G17   29.70S
CHILDRESS      MOCLDY    58  33  39 S8        29.63S
SEMINOLE       MOCLDY    59  28  30 W9        29.73F
$$

PERMIAN BASIN

CITY           SKY/WX    TMP DP  RH WIND       PRES   REMARKS
MIDLAND        PTCLDY    64  26  23 SW15      29.74R
ODESSA         PTCLDY    63  24  22 W17       29.75S
WINK           CLOUDY    65  23  20 W17G25    29.72F
$$

FAR WEST/SOUTHWEST MOUNTAINS/TRANS PECOS

CITY           SKY/WX    TMP DP  RH WIND       PRES   REMARKS
ALPINE         PTCLDY    58  23  26 W20G28    29.94F
DRYDEN           N/A     59  46  62 SE13      29.80F
EL PASO        MOCLDY    62  25  24 W8        29.90F
FORT STOCKTON  PTCLDY    62  24  23 SW13      29.80S
GUADALUPE PASS NOT AVBL
MARFA          PTCLDY    55  21  26 W22       29.93F
PECOS          PTCLDY    65  24  21 W17G28    29.77F
$$

DALLAS/FORT WORTH METROPLEX

CITY           SKY/WX    TMP DP  RH WIND       PRES   REMARKS
DFW AIRPORT    CLOUDY    51  45  79 S16       29.82F
FTW MEACHAM    CLOUDY    53  46  77 SE12      29.81F
DAL-EXECUTIVE  CLOUDY    53  45  74 S12       29.84F
GRAND PRAIRIE  NOT AVBL
ADDISON        NOT AVBL
MESQUITE       CLOUDY    50  45  81 SE9       29.87S
LANCASTER      CLOUDY    51  44  77 S10       29.88S
$$

NORTH CENTRAL TEXAS

CITY           SKY/WX    TMP DP  RH WIND       PRES   REMARKS
SHRMAN/DENISON CLOUDY    48  47  97 SE14      29.84F FOG
GAINESVILLE    CLOUDY    49  45  88 SE12      29.81F
BRIDGEPORT     CLEAR     50  46  87 S9        29.80F
DENTON         CLOUDY    51  45  79 SE17      29.81F
WAXAHACHIE     CLOUDY    50  48  90 SE12      29.87F
GRANBURY       CLOUDY    55  48  78 SE7       29.82F
$$

WESTERN NORTH TEXAS

CITY           SKY/WX    TMP DP  RH WIND       PRES   REMARKS
WICHITA FALLS  CLEAR     51  44  77 SE15      29.71F
VERNON         CLEAR     55  42  60 SE16      29.66F
BRECKENRIDGE   CLEAR     55  44  65 S9G16     29.74F
COMANCHE       CLEAR     52  46  81 S7        29.79F
$$

CENTRAL AND SOUTH CENTRAL TEXAS

CITY           SKY/WX    TMP DP  RH WIND       PRES   REMARKS
AUSTIN/BERGSTM CLOUDY    56  51  84 S10       29.88F
WACO           CLOUDY    53  47  79 S14       29.86S
HILLSBORO      CLOUDY    52  46  80 SE14      29.85F
TEMPLE         CLOUDY    54  45  71 S13       29.86R
KILLEEN-GRAY   CLOUDY    54  50  87 S8        29.84F
FORT HOOD      CLOUDY    54  49  83 SE10      29.84S
GEORGETOWN     CLOUDY    55  48  76 S7        29.86R
LAGO VISTA     CLOUDY    55  49  81 S10G17    29.87R
SAN MARCOS     CLOUDY    55  50  82 S12G18    29.89F
NEW BRAUNFELS  CLOUDY    55  52  89 SW10      29.89S
RANDOLPH AFB   CLOUDY    54  52  94 S10       29.91R
SAN ANTONIO    CLOUDY    55  50  83 SW12      29.90F
STINSON        CLOUDY    54  52  93 SW7       29.90F
PLEASANTON     NOT AVBL
LA GRANGE      CLOUDY    58  54  85 S8        29.89F
GIDDINGS       CLOUDY    55  51  86 S5        29.93F
$$

EAST TEXAS

CITY           SKY/WX    TMP DP  RH WIND       PRES   REMARKS
PARIS          CLOUDY    48  41  76 SE9       29.90S
CLARKSVILLE    NOT AVBL
TYLER          CLOUDY    51  43  74 S7        29.90S
LONGVIEW       CLOUDY    51  45  79 S9        29.90F
PALESTINE      CLOUDY    52  47  82 SE9       29.90F
NACOGDOCHES    CLOUDY    52  45  76 S5        29.96R
$$

TEXAS HILL COUNTRY AND EDWARDS PLATEAU

CITY           SKY/WX    TMP DP  RH WIND       PRES   REMARKS
LLANO          CLEAR     54  46  76 S8        29.87S
HORSESHOE BAY  MOCLDY    53  47  78 S6        29.86S
KERRVILLE      CLOUDY    51  47  87 S9G16     29.88F
FREDERICKSBRG  CLOUDY    50  46  86 SW9       29.86F
ROCKSPRINGS    CLOUDY    48  46  93 S10       29.88F FOG
HONDO          CLOUDY    54  48  80 SW5       29.93S
UVALDE         CLOUDY    53  48  84 SE6       29.91S
DEL RIO        CLEAR     54  48  80 E5        29.87S
$$

SOUTHEAST TEXAS

CITY           SKY/WX    TMP DP  RH WIND       PRES   REMARKS
COLLEGE STN    CLOUDY    55  49  80 S6        29.91F
CALDWELL       CLOUDY    54  52  94 SE13      29.93F
CROCKETT       CLOUDY    54  50  87 CALM      29.96S
BRENHAM        CLOUDY    58  52  80 S5        29.92S
HUNTSVILLE     CLOUDY    56  49  77 VRB3      29.92F
CONROE         CLOUDY    57  50  77 S5        29.94F
HOUSTON BUSH   CLOUDY    58  50  75 SE5       29.94F
HOUSTON HOBBY  MOCLDY    57  51  80 SE7       29.93F
PERLAND        MOCLDY    58  51  78 SE8       29.95F
WHARTON        PTCLDY    56  53  88 SE5       29.94S
$$

THE UPPER TEXAS COAST

CITY           SKY/WX    TMP DP  RH WIND       PRES   REMARKS
ORANGE         CLOUDY    55  50  86 E3        29.99F
PORT ARTHUR    CLOUDY    55  50  83 SE5       29.96F
GALVESTON      CLOUDY    57  54  89 NE6       29.96F
ANGLETON       CLOUDY    56  54  93 E5        29.94F
BAY CITY         N/A     60  56  88 SE6       29.93S
$$

TEXAS COASTAL BEND, RIO GRANDE PLAINS DEEP SOUTH TEXAS

CITY           SKY/WX    TMP DP  RH WIND       PRES   REMARKS
VICTORIA       CLOUDY    60  55  83 S6        29.93S
BEEVILLE       CLOUDY    60  56  87 S5        29.92F
ROCKPORT       CLOUDY    60  55  83 E8        29.93S
PORT ARANSAS   CLOUDY    60  57  89 NE6       29.93S
PORT LAVACA    CLOUDY    58  55  91 SE6       29.93S
CORPUS CHRISTI MOCLDY    60  55  83 SE6       29.92F
KINGSVILLE NAS CLOUDY    59  57  93 CALM      29.93F
COTULLA        PTCLDY    58  51  78 SE5       29.89F
LAREDO         CLEAR     63  54  72 S8        29.90F
BROWNSVILLE    CLOUDY    64  61  90 N5        29.92F
PORT ISABEL    CLOUDY    63  60  90 N7        29.92R
HEBBRONVILLE   HVY RAIN  60  55  84 E6        29.93S
MCALLEN        CLOUDY    62  56  80 NE5       29.93F
WESLACO        CLOUDY    62  56  82 NE3       29.93S
FALFURRIAS     NOT AVBL
EDINBURG       CLOUDY    64  56  78 CALM      29.94S
$$



USA.gov is the U.S. government's official web portal to all federal, state and local government web resources and services.